Location: Bottenau
(48.5138°N, 8.0462°E)
Time: 20:20:45
(UTC+00:00)

Terra - Pass Details

Date: 18 April 2021
Orbit: 701 x 703 km, 98.2° (Epoch: 18 May)

Event Time Altitude Azimuth Distance (km) Brightness Sun altitude
Exits shadow 21:28:59 70° 219° (SW) 750 1.8 -24.9°
Maximum altitude 21:29:19 74° 257° (WSW) 736 1.8 -24.9°
Drops below altitude 10° 21:34:07 10° 343° (NNW) 2,182 5.3 -25.3°
Sets 21:36:23 0° 345° (NNW) 3,105 6.4 -25.5°
